Location: Palomar Mountain Lodge
(33.3110°N, 116.8495°W)
Time: 06:46:49
(UTC-07:00)

Cosmos 1892 Rocket - Pass Details

Date: 14 June 2018
Orbit: 607 x 633 km, 82.5° (Epoch: 17 June)

Event Time Altitude Azimuth Distance (km) Brightness Sun altitude
Rises 20:45:35 0° 192° (SSW) 2,852 6.7 -9.2°
Reaches altitude 10° 20:47:47 10° 195° (SSW) 1,955 5.9 -9.6°
Maximum altitude 20:52:05 65° 277° (W) 677 4.0 -10.3°
Drops below altitude 10° 20:56:27 10° 360° (N) 1,983 6.7 -11.0°
Sets 20:58:42 0° 3° (N) 2,897 7.5 -11.4°
